Location: Chevoux
(46.3801°N, 4.9476°E)
Time: 12:25:14
(UTC+00:00)

Cosmos 2344 - Pass Details

Date: 28 January 2021
Orbit: 1243 x 2999 km, 63.3° (Epoch: 06 March)

Event Time Altitude Azimuth Distance (km) Brightness Sun altitude
Rises 17:19:49 0° 319° (NW) 4,490 6.8 -7.4°
Reaches altitude 10° 17:22:27 10° 322° (NW) 3,642 6.2 -7.8°
Maximum altitude 17:31:30 66° 45° (NE) 1,969 4.4 -9.3°
Drops below altitude 10° 17:44:05 10° 127° (SE) 4,956 6.3 -11.4°
Sets 17:48:19 0° 130° (SE) 6,196 6.8 -12.1°
